ELY192 UACC-LLBG

Flight info

Callsign ELY192
Flight time N/A
Altitude 36000
Route DIDAL1A DIDAL L994 TITUR N985 DAFOR/K0895F380 N985 ORTIM L158 IRGOS T613 DOGOB M864 ELMOD L4 TOKNU T288 STAPA M869 OPOKA/N0477F380 DCT IRBEX DCT BOKSU M985 SUWGI M857 GERVI Z179 KEFIR/N0481F390 DCT BADOR DCT EMPOS DCT APROB DCT ADORU UG80 EKI UW81 YAYLA UL854 KULAR UT39 TOMBI DCT IDAKU L35 PIKOG L609 ZUKKO
Aircraft B772/H-SDE2E3FGHIJ4J5LM1OP2RVWXY/LB1D1

Departure

Time 2026-04-29 13:59
Airport Nursultan Nazarbayev International Airport (UACC)

Arrival

Time N/A
Airport Ben Gurion International Airport (LLBG)
Time Latitude Longitude Altitude Speed Heading
2026-04-29 13:46 51.02433 71.45959 1168 ft 0 kts 45°
2026-04-29 13:52 51.02436 71.45965 1168 ft 4 kts 47°
2026-04-29 13:52 51.02452 71.45999 1168 ft 4 kts 58°
2026-04-29 13:52 51.02464 71.46037 1164 ft 4 kts 66°
2026-04-29 13:53 51.02467 71.46059 1168 ft 4 kts 120°
2026-04-29 13:53 51.02455 71.46076 1168 ft 0 kts 314°
2026-04-29 13:54 51.02456 71.46060 1168 ft 3 kts 268°
2026-04-29 13:55 51.02434 71.46058 1165 ft 4 kts 146°
2026-04-29 13:55 51.02408 71.46121 1167 ft 10 kts 123°
2026-04-29 13:55 51.02362 71.46225 1165 ft 12 kts 129°
2026-04-29 13:55 51.02283 71.46221 1168 ft 19 kts 224°
2026-04-29 13:56 51.02164 71.46020 1164 ft 26 kts 226°
2026-04-29 13:56 51.02036 71.45817 1165 ft 26 kts 225°
2026-04-29 13:56 51.01908 71.45614 1165 ft 26 kts 225°
2026-04-29 13:56 51.01780 71.45412 1164 ft 26 kts 225°
2026-04-29 13:57 51.01652 71.45210 1168 ft 26 kts 224°
2026-04-29 13:57 51.01523 71.45009 1164 ft 26 kts 224°
2026-04-29 13:57 51.01394 71.44809 1164 ft 26 kts 224°
2026-04-29 13:57 51.01256 71.44713 1166 ft 22 kts 158°
2026-04-29 13:58 51.01171 71.44891 1170 ft 20 kts 84°
2026-04-29 13:58 51.01304 71.45136 1167 ft 53 kts 44°
2026-04-29 13:58 51.01717 71.45777 1166 ft 111 kts 44°
2026-04-29 13:58 51.02396 71.46834 1170 ft 161 kts 44°
2026-04-29 13:59 51.03287 71.48214 1347 ft 188 kts 44°
2026-04-29 13:59 51.04243 71.49673 1920 ft 194 kts 44°
2026-04-29 13:59 51.05223 71.51131 2647 ft 191 kts 43°
2026-04-29 13:59 51.06138 71.52518 3458 ft 183 kts 46°
2026-04-29 14:00 51.07054 71.53966 3962 ft 189 kts 46°
2026-04-29 14:00 51.08053 71.55527 4118 ft 207 kts 37°
2026-04-29 14:00 51.09394 71.56464 4254 ft 223 kts 15°
2026-04-29 14:00 51.10961 71.57051 4459 ft 239 kts 15°
2026-04-29 14:01 51.12623 71.57719 4773 ft 252 kts 15°
2026-04-29 14:01 51.14355 71.58414 5251 ft 262 kts 15°
2026-04-29 14:01 51.16159 71.59135 5694 ft 273 kts 15°
2026-04-29 14:01 51.18033 71.59776 6169 ft 278 kts
2026-04-29 14:02 51.19945 71.59203 6606 ft 287 kts 331°
2026-04-29 14:02 51.21422 71.57117 7211 ft 286 kts 299°
2026-04-29 14:02 51.22137 71.54217 7799 ft 281 kts 282°
2026-04-29 14:02 51.22646 71.51176 8331 ft 286 kts 282°
2026-04-29 14:03 51.23162 71.48111 9013 ft 286 kts 282°
2026-04-29 14:03 51.23677 71.45037 9678 ft 288 kts 282°
2026-04-29 14:03 51.24195 71.41936 10284 ft 292 kts 282°
2026-04-29 14:03 51.24731 71.38716 10491 ft 310 kts 282°
2026-04-29 14:04 51.25306 71.35277 10655 ft 331 kts 282°
2026-04-29 14:04 51.25921 71.31608 10825 ft 353 kts 282°
2026-04-29 14:04 51.26568 71.27757 11318 ft 364 kts 282°
2026-04-29 14:04 51.27228 71.23827 11983 ft 370 kts 282°
2026-04-29 14:05 51.27898 71.19841 12721 ft 373 kts 283°
2026-04-29 14:05 51.28569 71.15828 13544 ft 376 kts 283°
2026-04-29 14:05 51.29243 71.11776 14313 ft 379 kts 283°
2026-04-29 14:05 51.29920 71.07696 15044 ft 381 kts 282°
2026-04-29 14:06 51.30599 71.03581 15761 ft 385 kts 283°
2026-04-29 14:06 51.31286 70.99427 16469 ft 388 kts 283°
2026-04-29 14:06 51.31978 70.95237 17196 ft 392 kts 283°
2026-04-29 14:06 51.32675 70.91014 17971 ft 394 kts 283°
2026-04-29 14:07 51.33374 70.86753 18682 ft 398 kts 283°
2026-04-29 14:07 51.34068 70.82515 19301 ft 401 kts 282°
2026-04-29 14:07 51.34777 70.78178 19939 ft 404 kts 282°
2026-04-29 14:07 51.35488 70.73814 20573 ft 407 kts 282°
2026-04-29 14:08 51.36203 70.69409 21206 ft 411 kts 282°
2026-04-29 14:08 51.36924 70.64974 21944 ft 411 kts 282°
2026-04-29 14:08 51.37641 70.60528 22587 ft 415 kts 282°
2026-04-29 14:08 51.38367 70.56040 23173 ft 418 kts 282°
2026-04-29 14:09 51.39097 70.51510 23713 ft 422 kts 282°
2026-04-29 14:09 51.39835 70.46938 24185 ft 425 kts 282°
2026-04-29 14:09 51.40575 70.42341 24650 ft 428 kts 282°
2026-04-29 14:09 51.41317 70.37708 25143 ft 430 kts 282°
2026-04-29 14:10 51.42061 70.33052 25642 ft 432 kts 282°
2026-04-29 14:10 51.42803 70.28387 26121 ft 433 kts 282°
2026-04-29 14:10 51.43548 70.23693 26555 ft 436 kts 282°
2026-04-29 14:10 51.44294 70.18973 26971 ft 438 kts 282°
2026-04-29 14:11 51.45042 70.14230 27366 ft 441 kts 282°
2026-04-29 14:11 51.45794 70.09451 27736 ft 443 kts 282°
2026-04-29 14:11 51.46513 70.04868 28110 ft 445 kts 282°
2026-04-29 14:11 51.47271 70.00039 28489 ft 447 kts 282°
2026-04-29 14:12 51.48027 69.95193 28844 ft 449 kts 282°
2026-04-29 14:12 51.48854 69.90350 29195 ft 451 kts 287°
2026-04-29 14:12 51.50146 69.85723 29444 ft 458 kts 295°
2026-04-29 14:12 51.51656 69.81217 29776 ft 459 kts 296°
2026-04-29 14:13 51.53201 69.76718 30104 ft 460 kts 296°
2026-04-29 14:13 51.54738 69.72200 30378 ft 462 kts 295°
2026-04-29 14:13 51.56256 69.67652 30619 ft 463 kts 295°
2026-04-29 14:13 51.57758 69.63067 30816 ft 464 kts 295°
2026-04-29 14:14 51.59248 69.58452 31044 ft 465 kts 294°
2026-04-29 14:14 51.60728 69.53826 31306 ft 465 kts 294°
2026-04-29 14:14 51.62200 69.49203 31586 ft 463 kts 294°
2026-04-29 14:14 51.63665 69.44590 31894 ft 462 kts 294°
2026-04-29 14:15 51.65122 69.39989 32207 ft 461 kts 294°
2026-04-29 14:15 51.66575 69.35399 32509 ft 460 kts 294°
2026-04-29 14:15 51.68028 69.30809 32810 ft 458 kts 294°
2026-04-29 14:15 51.69467 69.26252 33080 ft 458 kts 294°
2026-04-29 14:16 51.70910 69.21690 33335 ft 457 kts 294°
2026-04-29 14:16 51.72352 69.17118 33529 ft 457 kts 294°
2026-04-29 14:16 51.73781 69.12530 33750 ft 458 kts 294°
2026-04-29 14:16 51.75215 69.07949 34059 ft 457 kts 294°
2026-04-29 14:17 51.76627 69.03441 34319 ft 455 kts 294°
2026-04-29 14:17 51.78052 68.98884 34544 ft 454 kts 294°
2026-04-29 14:17 51.79473 68.94325 34741 ft 454 kts 294°
2026-04-29 14:17 51.80893 68.89762 34952 ft 454 kts 294°
2026-04-29 14:18 51.82310 68.85202 35154 ft 454 kts 293°
2026-04-29 14:18 51.83725 68.80641 35393 ft 454 kts 293°
2026-04-29 14:18 51.85135 68.76082 35595 ft 453 kts 293°
2026-04-29 14:18 51.86544 68.71522 35805 ft 453 kts 293°
2026-04-29 14:19 51.87948 68.66964 36006 ft 453 kts 293°
2026-04-29 14:19 51.89352 68.62399 36198 ft 452 kts 293°
2026-04-29 14:19 51.90753 68.57837 36389 ft 452 kts 293°
2026-04-29 14:19 51.92151 68.53272 36598 ft 452 kts 292°
2026-04-29 14:20 51.93546 68.48716 36839 ft 451 kts 292°
2026-04-29 14:20 51.94936 68.44169 37044 ft 450 kts 292°
2026-04-29 14:20 51.96322 68.39623 37195 ft 450 kts 292°
2026-04-29 14:20 51.97705 68.35063 37324 ft 450 kts 292°
2026-04-29 14:21 51.99040 68.30473 37514 ft 449 kts 291°
2026-04-29 14:21 52.00340 68.25872 37701 ft 448 kts 290°
2026-04-29 14:21 52.01627 68.21270 37866 ft 448 kts 290°
2026-04-29 14:21 52.02914 68.16663 38007 ft 448 kts 290°
2026-04-29 14:22 52.05369 68.07898 38115 ft 450 kts 290°
2026-04-29 14:22 52.07963 67.98649 38133 ft 449 kts 290°
2026-04-29 14:23 52.10552 67.89409 38145 ft 449 kts 290°
2026-04-29 14:23 52.13126 67.80172 38166 ft 448 kts 290°
2026-04-29 14:24 52.15690 67.70930 38142 ft 448 kts 290°
2026-04-29 14:24 52.18246 67.61682 38141 ft 448 kts 290°
2026-04-29 14:25 52.20796 67.52418 38136 ft 448 kts 290°
2026-04-29 14:25 52.23331 67.43147 38138 ft 448 kts 290°
2026-04-29 14:26 52.25859 67.33866 38136 ft 448 kts 290°
2026-04-29 14:26 52.28363 67.24634 38157 ft 448 kts 290°
2026-04-29 14:27 52.30880 67.15328 38147 ft 448 kts 289°
2026-04-29 14:28 52.34636 67.01358 38137 ft 447 kts 289°
2026-04-29 14:28 52.37129 66.92041 38136 ft 447 kts 289°
2026-04-29 14:29 52.39613 66.82721 38124 ft 447 kts 289°
2026-04-29 14:29 52.42088 66.73396 38133 ft 446 kts 289°
2026-04-29 14:30 52.44517 66.64032 38142 ft 446 kts 288°
2026-04-29 14:30 52.46912 66.54656 38132 ft 446 kts 288°
2026-04-29 14:31 52.48886 66.46913 38135 ft 446 kts 288°
2026-04-29 14:31 52.51274 66.37534 38133 ft 445 kts 288°
2026-04-29 14:32 52.53654 66.28153 38126 ft 445 kts 288°
2026-04-29 14:32 52.56025 66.18773 38129 ft 444 kts 288°
2026-04-29 14:33 52.58387 66.09389 38142 ft 444 kts 288°
2026-04-29 14:33 52.60741 65.99991 38133 ft 444 kts 288°
2026-04-29 14:34 52.63083 65.90604 38132 ft 443 kts 288°
2026-04-29 14:34 52.65415 65.81212 38134 ft 443 kts 287°
2026-04-29 14:35 52.67742 65.71807 38152 ft 443 kts 287°
2026-04-29 14:35 52.70059 65.62405 38136 ft 443 kts 287°
2026-04-29 14:36 52.72366 65.52995 38153 ft 442 kts 287°
2026-04-29 14:36 52.74664 65.43591 38143 ft 442 kts 287°
2026-04-29 14:37 52.76993 65.34265 38139 ft 443 kts 288°
2026-04-29 14:37 52.79375 65.24884 38145 ft 443 kts 288°
2026-04-29 14:38 52.81733 65.15399 38144 ft 443 kts 287°
2026-04-29 14:38 52.83991 65.05985 38141 ft 443 kts 287°
2026-04-29 14:39 52.86253 64.96485 38162 ft 445 kts 286°
2026-04-29 14:39 52.88541 64.86882 38153 ft 445 kts 286°
2026-04-29 14:40 52.90790 64.77408 38139 ft 445 kts 286°
2026-04-29 14:40 52.93046 64.67870 38144 ft 444 kts 286°
2026-04-29 14:41 52.95288 64.58356 38149 ft 444 kts 286°
2026-04-29 14:41 52.97519 64.48838 38149 ft 443 kts 286°
2026-04-29 14:42 52.99745 64.39308 38163 ft 443 kts 285°
2026-04-29 14:42 53.01962 64.29763 38159 ft 443 kts 285°
2026-04-29 14:43 53.04169 64.20220 38150 ft 443 kts 285°
2026-04-29 14:43 53.06370 64.10661 38156 ft 442 kts 285°
2026-04-29 14:44 53.08562 64.01101 38157 ft 442 kts 285°
2026-04-29 14:44 53.10744 63.91543 38160 ft 442 kts 285°
2026-04-29 14:45 53.12916 63.81975 38205 ft 442 kts 285°
2026-04-29 14:45 53.15087 63.72375 38166 ft 443 kts 285°
2026-04-29 14:46 53.17250 63.62776 38157 ft 443 kts 285°
2026-04-29 14:46 53.19057 63.53106 38167 ft 437 kts 276°
2026-04-29 14:47 53.20036 63.43157 38162 ft 435 kts 274°
2026-04-29 14:47 53.20985 63.33205 38154 ft 435 kts 274°